Snowfall_Accumulation
0.7 0.8 0.3 0.4 2.1 0.6 0.4 0.8 1.4 4.1 1.5 1.6 1.4 1.6 1.7 2.0 1.4 0.9 0.9 0.5 0.8 1.1 1.5 1.2 0.5 0.1 0.0 0.0 0.0 0.0 0.0 0.0 0.0 0.0 0.0 0.0 0.0 0.0 0.0 0.0 0.0 0.0 0.0 0.0
2.8 0.8 0.3 2.6 3.6 1.0 0.4 0.8 2.0 0.9 1.0 1.3 0.8 1.2 1.7 1.4 0.5 0.2 0.1 0.1 0.1 0.1 0.1 0.4 0.2 0.2 0.0 0.0 0.0 0.0 0.0 0.0 0.0 0.0 0.0 0.0 0.0 0.0 0.0 0.0 0.0 0.0 0.0 0.0
1.6 0.3 0.2 2.1 7.3 4.3 1.2 0.2 0.2 0.2 0.6 0.8 0.9 0.5 0.8 0.5 0.1 0.0 0.1 0.1 0.6 1.2 0.7 0.3 0.2 0.1 0.3 0.2 0.0 0.0 0.0 0.0 0.0 0.0 0.0 0.0 0.0 0.0 0.0 0.0 0.0 0.0 0.0 0.0
1.0 1.0 4.5 3.2 0.2 0.2 0.1 0.1 0.2 0.1 0.3 0.1 0.2 0.5 0.5 0.4 0.3 0.1 0.1 0.1 0.5 1.8 1.3 0.7 0.2 0.1 0.1 0.1 0.1 0.2 0.2 0.0 0.0 0.0 0.0 0.0 0.0 0.1 0.4 0.3 0.6 0.4 0.2 0.1
3.6 1.3 1.5 0.7 0.4 0.4 0.3 0.6 0.3 0.3 0.3 0.2 0.3 0.1 1.1 0.5 0.2 0.2 0.2 0.1 0.2 0.3 1.5 0.9 0.9 0.4 0.4 0.6 0.5 0.4 1.4 1.5 0.7 0.1 0.2 0.2 0.3 0.3 0.6 0.5 1.0 2.3 1.3 1.2
1.6 0.6 2.8 0.4 0.3 0.1 0.0 0.9 0.2 0.1 0.2 0.1 0.1 0.1 1.4 0.7 0.4 0.2 0.1 0.0 0.0 0.0 0.0 0.1 0.2 0.2 0.6 1.4 1.8 1.7 1.5 1.8 1.8 1.2 1.1 0.7 0.9 1.5 1.0 0.9 2.7 2.8 3.0 3.0
2.2 0.9 0.4 0.1 0.3 0.1 0.7 1.7 0.1 0.1 0.1 0.0 0.1 0.6 0.9 0.4 0.7 0.4 0.0 0.0 0.0 0.0 0.0 0.0 0.0 0.0 0.2 0.6 2.3 2.1 1.1 0.9 1.4 1.8 2.2 2.2 1.9 1.2 1.7 1.7 1.6 2.2 2.9 3.6
1.0 1.1 1.9 0.2 0.4 0.4 0.6 0.2 0.1 0.1 0.0 0.1 0.2 0.5 0.7 0.9 1.7 0.4 0.1 0.0 0.0 0.0 0.0 0.0 0.0 0.0 0.1 0.4 0.1 0.1 0.3 0.7 0.8 1.0 1.8 1.4 1.7 1.7 1.9 1.9 2.6 2.6 2.4 3.2
0.7 1.4 0.4 0.5 0.7 0.2 0.0 0.1 0.2 0.1 0.0 0.0 0.1 0.9 1.9 2.2 2.1 0.7 0.1 0.0 0.0 0.0 0.0 0.0 0.0 0.0 0.0 0.3 0.0 0.0 0.0 0.2 0.3 0.2 0.2 0.4 1.0 1.2 2.3 1.5 2.4 2.6 3.0 3.9
0.8 1.0 0.5 0.5 0.2 0.1 0.1 0.2 0.1 0.0 0.1 0.1 0.2 0.4 0.9 0.6 0.5 0.2 0.0 0.0 0.0 0.0 0.0 0.0 0.0 0.0 0.1 0.0 0.0 0.0 0.0 0.0 0.0 0.1 0.1 0.1 0.2 0.4 0.7 1.4 2.0 2.5 3.3 4.5
1.6 0.9 0.4 0.5 0.3 0.1 0.1 0.0 0.0 0.0 0.0 0.0 0.0 0.0 0.0 0.0 0.0 0.0 0.0 0.0 0.0 0.0 0.0 0.0 0.0 0.0 0.0 0.0 0.0 0.0 0.0 0.0 0.0 0.0 0.0 0.1 0.4 0.9 0.8 1.9 1.4 2.5 4.1 5.1
3.4 0.8 0.5 0.8 0.4 0.2 0.2 0.1 0.0 0.0 0.0 0.0 0.0 0.0 0.0 0.0 0.0 0.0 0.0 0.0 0.0 0.0 0.0 0.0 0.0 0.0 0.0 0.0 0.0 0.0 0.0 0.1 0.6 0.6 0.5 0.4 0.6 1.1 nan nan nan nan nan 4.5
1.0 0.2 0.8 1.7 0.3 0.1 0.1 0.0 0.0 0.0 0.0 0.0 0.0 0.0 0.0 0.0 0.0 nan 0.0 0.0 0.0 0.0 0.0 0.1 0.2 0.3 0.4 0.3 0.2 0.4 0.6 0.3 0.9 0.8 1.0 1.2 1.7 1.8 2.5 3.2 nan nan nan nan
0.0 0.0 0.2 0.0 0.2 0.0 0.0 0.0 0.0 0.0 0.0 0.0 0.0 0.0 0.1 0.1 0.1 0.2 0.4 0.4 0.1 0.1 0.2 0.2 0.5 2.5 3.0 2.7 2.3 3.0 2.5 1.0 2.9 3.3 3.5 4.4 5.2 6.0 6.9 7.6 10.2 11.6 nan nan
0.0 0.0 0.0 0.0 0.0 0.0 0.0 0.0 0.0 0.0 0.0 0.0 0.0 0.0 0.1 0.4 0.9 0.5 0.3 0.3 0.3 1.1 1.8 2.0 2.1 2.9 2.0 1.3 2.0 2.7 2.3 4.3 6.0 6.5 7.5 8.2 8.1 8.6 8.6 8.1 8.7 9.2 8.0 4.6
0.0 0.0 0.0 0.0 0.0 0.0 0.0 0.0 0.0 0.1 0.1 0.1 0.2 0.3 0.2 0.2 0.5 0.8 0.8 0.8 0.9 2.1 1.6 4.7 1.8 3.4 2.2 1.9 2.7 3.2 4.5 3.3 4.8 7.0 8.0 7.4 6.7 6.2 5.5 5.9 5.4 6.6 6.4 7.1
0.0 0.1 0.0 0.1 0.0 0.1 0.1 0.2 0.2 0.5 1.6 2.4 2.7 2.2 2.0 2.6 2.6 3.3 4.0 3.4 4.6 6.2 5.9 5.3 8.1 6.9 6.4 5.9 4.5 5.3 5.2 3.8 1.7 3.8 4.5 4.6 5.2 5.4 4.9 5.9 7.1 6.5 9.5 12.4
0.0 0.1 0.1 0.1 0.1 0.1 0.2 0.2 0.2 0.3 1.6 2.0 2.5 5.2 6.8 6.7 4.6 5.3 6.4 6.1 7.0 8.4 8.1 8.3 7.5 7.3 6.9 5.2 3.6 2.2 2.5 2.4 2.4 3.1 2.8 4.3 3.4 2.8 4.1 3.8 3.7 4.7 6.1 5.3
0.0 0.0 0.0 0.1 0.1 0.1 0.2 0.7 0.9 1.4 4.8 5.2 7.3 8.3 8.6 9.6 7.9 9.2 9.1 11.7 12.6 7.0 9.5 5.3 1.3 1.4 1.4 2.0 0.6 1.3 1.9 3.0 2.1 1.9 2.2 5.7 5.9 3.2 5.6 7.0 6.1 8.2 5.5 6.2
0.1 0.1 0.1 0.3 0.2 0.4 2.6 3.7 4.5 5.0 6.8 5.7 10.0 11.2 9.0 12.6 11.8 11.8 8.2 7.6 6.1 5.9 3.3 2.6 0.9 0.6 0.9 0.7 1.7 1.2 2.1 3.9 2.2 5.0 6.7 3.7 10.1 14.6 9.9 7.5 6.5 8.6 15.5 12.1
3.6 3.8 4.6 4.6 6.8 6.2 7.3 8.3 6.4 5.4 8.4 10.6 10.6 13.0 12.8 10.6 9.4 10.7 7.0 3.5 5.3 3.6 2.2 0.9 1.5 1.4 0.7 0.5 0.6 2.8 5.4 8.4 8.8 5.7 6.0 12.5 16.4 12.2 13.5 15.1 14.6 16.7 19.5 15.1
4.2 4.4 6.6 6.3 4.5 5.6 6.4 5.7 3.9 6.8 7.3 10.3 14.7 16.4 11.2 5.6 6.7 5.8 7.1 2.7 2.6 2.5 1.6 1.7 1.3 3.2 2.3 5.0 1.5 7.2 3.7 4.0 5.5 5.6 6.1 10.3 12.4 19.8 20.8 18.2 17.8 19.8 19.6 19.8
4.3 4.1 4.4 5.2 4.8 5.1 3.9 4.2 8.1 6.9 10.4 10.0 10.6 7.0 4.5 2.9 2.5 4.0 4.2 1.0 1.4 3.6 1.3 3.1 4.6 5.3 5.7 8.6 8.2 9.6 9.3 9.4 9.1 8.6 10.1 15.7 15.7 25.4 15.3 15.1 17.2 17.9 22.9 16.0
3.7 3.1 3.3 3.4 2.7 1.4 2.1 3.7 1.7 1.6 7.3 3.1 4.6 7.1 2.1 5.0 7.0 1.4 1.4 5.6 5.7 14.2 11.3 5.7 7.8 5.9 6.5 10.9 11.5 13.2 12.6 14.4 14.9 16.6 8.5 8.7 23.1 19.7 17.0 24.5 15.9 18.6 20.5 17.3
3.1 2.7 2.5 2.6 1.1 2.5 0.7 0.3 0.3 0.3 0.4 0.5 0.4 0.3 0.4 1.0 6.7 3.6 5.6 5.2 6.4 5.0 7.3 6.2 6.2 6.9 14.3 15.5 15.4 15.9 16.1 14.4 17.7 19.9 14.6 20.0 18.2 26.5 24.6 20.5 23.7 24.3 24.8 21.7
1.2 2.2 1.9 0.8 1.1 1.1 0.9 0.7 1.3 1.5 1.1 4.7 2.6 10.3 7.1 4.2 3.8 3.8 5.6 6.4 4.4 6.0 5.0 12.6 17.6 17.4 16.8 13.3 15.2 15.6 12.6 9.2 14.3 15.3 17.0 16.3 15.7 13.8 17.9 16.3 21.6 26.0 31.7 34.3
1.7 0.7 1.2 1.0 0.9 1.0 1.0 1.3 3.4 4.5 4.8 8.7 7.6 7.4 4.8 8.4 10.1 6.7 8.3 11.8 12.3 12.7 12.8 16.0 14.5 10.7 9.5 15.1 13.4 12.2 12.1 12.8 10.8 11.1 20.3 23.3 22.2 29.1 26.5 26.1 29.4 31.3 28.2 25.6
Water_Equivalent
0.13 0.16 0.06 0.08 0.38 0.11 0.09 0.17 0.25 0.68 0.25 0.24 0.21 0.24 0.26 0.29 0.21 0.13 0.12 0.07 0.11 0.16 0.22 0.18 0.08 0.01 0.01 0.01 0.00 0.00 0.00 0.00 0.00 0.00 0.00 0.00 0.00 0.00 0.00 0.00 0.00 0.00 0.00 0.00
0.52 0.15 0.07 0.42 0.58 0.17 0.08 0.16 0.33 0.14 0.16 0.22 0.13 0.20 0.24 0.20 0.06 0.02 0.01 0.02 0.02 0.02 0.01 0.06 0.04 0.03 0.00 0.00 0.00 0.00 0.00 0.00 0.00 0.00 0.00 0.00 0.00 0.00 0.00 0.00 0.00 0.00 0.00 0.00
0.24 0.05 0.04 0.28 1.03 0.61 0.20 0.04 0.04 0.04 0.09 0.13 0.13 0.08 0.11 0.07 0.01 0.00 0.01 0.03 0.16 0.32 0.19 0.07 0.05 0.02 0.07 0.04 0.00 0.00 0.00 0.00 0.00 0.00 0.00 0.00 0.00 0.00 0.01 0.01 0.00 0.00 0.00 0.00
0.20 0.17 0.54 0.47 0.04 0.04 0.02 0.02 0.03 0.02 0.05 0.02 0.03 0.07 0.09 0.07 0.04 0.02 0.01 0.03 0.13 0.58 0.44 0.22 0.07 0.05 0.04 0.03 0.03 0.05 0.05 0.00 0.00 0.00 0.00 0.00 0.00 0.02 0.08 0.07 0.13 0.08 0.05 0.02
0.61 0.20 0.22 0.10 0.06 0.07 0.05 0.08 0.05 0.05 0.05 0.04 0.06 0.02 0.18 0.09 0.04 0.05 0.05 0.02 0.04 0.08 0.46 0.34 0.27 0.12 0.12 0.17 0.15 0.12 0.37 0.43 0.17 0.04 0.04 0.04 0.07 0.07 0.13 0.11 0.21 0.48 0.24 0.23
0.30 0.09 0.48 0.06 0.05 0.01 0.00 0.13 0.03 0.02 0.02 0.02 0.02 0.02 0.21 0.13 0.09 0.06 0.02 0.00 0.00 0.00 0.00 0.02 0.05 0.06 0.14 0.30 0.42 0.37 0.40 0.50 0.64 0.34 0.39 0.24 0.30 0.39 0.25 0.20 0.61 0.64 0.59 0.64
0.38 0.19 0.08 0.02 0.05 0.01 0.11 0.24 0.03 0.01 0.02 0.00 0.02 0.11 0.15 0.08 0.14 0.10 0.00 0.00 0.00 0.00 0.00 0.00 0.00 0.01 0.06 0.12 0.43 0.43 0.23 0.22 0.36 0.55 0.68 0.72 0.68 0.40 0.58 0.55 0.52 0.66 0.78 0.86
0.21 0.21 0.33 0.03 0.06 0.05 0.09 0.04 0.01 0.02 0.00 0.02 0.05 0.11 0.16 0.21 0.34 0.07 0.03 0.00 0.00 0.00 0.00 0.00 0.00 0.00 0.02 0.07 0.02 0.01 0.06 0.15 0.15 0.20 0.35 0.30 0.41 0.43 0.55 0.56 0.77 0.69 0.60 0.85
0.10 0.21 0.08 0.09 0.11 0.03 0.00 0.02 0.05 0.02 0.00 0.00 0.04 0.25 0.50 0.48 0.42 0.12 0.02 0.00 0.00 0.00 0.00 0.00 0.00 0.00 0.01 0.04 0.01 0.00 0.00 0.03 0.06 0.05 0.05 0.08 0.21 0.22 0.41 0.30 0.48 0.45 0.58 0.84
0.17 0.18 0.09 0.09 0.04 0.02 0.02 0.05 0.03 0.00 0.02 0.02 0.04 0.09 0.18 0.12 0.09 0.04 0.01 0.00 0.00 0.00 0.00 0.00 0.00 0.00 0.01 0.01 0.00 0.00 0.00 0.00 0.00 0.01 0.02 0.02 0.03 0.06 0.12 0.27 0.33 0.40 0.57 0.71
0.36 0.15 0.07 0.08 0.06 0.03 0.02 0.00 0.00 0.00 0.00 0.00 0.00 0.00 0.00 0.00 0.00 0.00 0.00 0.00 0.00 0.00 0.00 0.00 0.00 0.00 0.00 0.00 0.00 0.00 0.00 0.00 0.00 0.01 0.00 0.02 0.07 0.13 0.15 0.29 0.26 0.46 0.67 0.85
0.62 0.24 0.11 0.16 0.09 0.04 0.04 0.02 0.01 0.00 0.00 0.00 0.00 0.00 0.00 0.00 0.00 0.00 0.00 0.00 0.00 0.00 0.00 0.00 0.00 0.00 0.00 0.00 0.00 0.00 0.00 0.02 0.14 0.15 0.12 0.09 0.11 0.17 nan nan nan nan nan 0.91
0.23 0.05 0.20 0.38 0.08 0.02 0.02 0.00 0.00 0.00 0.00 0.00 0.00 0.00 0.00 0.00 0.00 nan 0.00 0.00 0.00 0.01 0.00 0.01 0.03 0.05 0.07 0.07 0.03 0.08 0.12 0.06 0.22 0.20 0.23 0.26 0.35 0.39 0.44 0.56 nan nan nan nan
0.01 0.00 0.03 0.01 0.03 0.00 0.00 0.00 0.00 0.00 0.00 0.00 0.00 0.00 0.01 0.03 0.03 0.03 0.06 0.06 0.02 0.02 0.03 0.04 0.09 0.35 0.48 0.51 0.48 0.56 0.49 0.31 0.61 0.64 0.66 0.83 1.03 1.17 1.32 1.38 1.73 1.89 nan nan
0.00 0.00 0.00 0.00 0.00 0.00 0.00 0.00 0.00 0.00 0.00 0.00 0.00 0.00 0.02 0.06 0.14 0.08 0.05 0.05 0.06 0.17 0.24 0.27 0.27 0.37 0.31 0.22 0.32 0.46 0.46 0.83 1.13 1.27 1.44 1.52 1.45 1.43 1.37 1.24 1.26 1.27 1.12 0.89
0.00 0.00 0.00 0.00 0.00 0.00 0.00 0.00 0.01 0.01 0.01 0.03 0.03 0.05 0.03 0.04 0.07 0.11 0.11 0.10 0.13 0.23 0.17 0.76 0.23 0.40 0.32 0.33 0.48 0.58 0.81 0.94 1.01 1.23 1.32 1.24 1.09 1.00 0.87 0.91 0.80 0.90 0.84 0.88
0.00 0.01 0.01 0.02 0.01 0.01 0.03 0.03 0.04 0.08 0.21 0.26 0.29 0.26 0.23 0.27 0.27 0.36 0.43 0.37 0.60 0.80 0.73 0.64 0.96 0.89 0.84 0.80 0.66 0.87 0.81 0.65 0.54 0.65 0.71 0.73 0.82 0.84 0.73 0.86 0.96 0.83 1.26 1.81
0.00 0.01 0.01 0.01 0.02 0.02 0.03 0.03 0.04 0.05 0.19 0.24 0.30 0.82 1.05 1.00 0.48 0.55 0.68 0.69 0.87 1.01 0.88 0.94 0.89 0.89 0.84 0.64 0.42 0.36 0.42 0.42 0.46 0.56 0.48 0.71 0.56 0.49 0.68 0.62 0.59 0.71 0.88 0.80
0.00 0.00 0.01 0.01 0.02 0.02 0.04 0.10 0.12 0.18 0.73 0.73 1.13 1.13 1.14 1.26 0.85 0.95 0.97 1.53 1.65 0.71 0.94 0.56 0.43 0.25 0.17 0.23 0.13 0.23 0.37 0.65 0.40 0.33 0.39 1.79 1.03 0.54 0.82 1.08 0.93 1.26 0.80 0.87
0.02 0.02 0.02 0.05 0.04 0.08 0.33 0.47 0.63 0.60 0.80 0.71 1.40 1.58 1.04 1.58 1.51 1.57 1.00 0.81 0.59 0.65 0.34 0.27 0.11 0.08 0.11 0.13 0.50 0.21 0.43 0.85 0.46 0.99 1.26 0.64 1.59 2.29 1.53 2.31 1.00 1.36 2.58 1.92
0.53 0.57 0.65 0.66 0.89 0.85 1.08 1.25 0.89 0.64 0.96 1.42 1.54 1.82 1.69 1.28 1.27 1.58 0.93 0.46 0.50 0.37 0.24 0.25 0.19 0.20 0.11 0.09 0.14 0.60 1.15 1.78 1.81 1.07 1.09 2.24 2.88 1.98 2.18 2.60 2.46 2.87 3.26 2.46
0.56 0.59 0.92 0.83 0.57 0.67 0.78 0.69 0.46 0.90 0.93 1.41 2.10 2.36 1.69 0.66 0.93 0.81 1.08 0.34 0.34 0.81 0.27 0.28 0.19 1.02 0.69 1.62 0.33 1.57 0.79 0.89 1.14 1.10 1.19 2.00 2.20 3.25 3.37 2.92 2.81 3.26 3.29 3.38
0.53 0.49 0.53 0.64 0.60 0.53 0.42 0.47 1.16 1.03 1.53 1.45 1.62 1.02 0.69 0.44 0.40 0.65 0.65 0.11 0.24 1.08 0.25 0.63 1.46 1.76 1.90 1.99 1.85 2.07 1.98 1.90 1.83 1.66 1.91 2.94 2.72 4.19 2.26 2.25 2.64 2.72 3.75 2.50
0.43 0.36 0.37 0.38 0.31 0.16 0.23 0.38 0.19 0.19 1.14 0.49 0.78 1.23 0.37 0.98 1.54 0.26 0.27 1.86 1.88 3.75 2.72 1.39 2.13 1.95 2.13 2.41 2.31 2.61 2.46 2.71 2.67 2.90 1.43 2.70 4.03 2.87 2.25 3.30 1.96 2.68 2.91 2.51
0.36 0.31 0.29 0.34 0.15 0.37 0.10 0.05 0.05 0.06 0.06 0.09 0.07 0.05 0.08 0.24 1.32 0.68 1.19 1.17 2.03 1.30 1.62 1.97 2.03 2.27 3.05 3.14 2.88 2.81 2.79 2.39 2.72 3.10 2.16 3.27 2.96 4.26 3.65 2.67 3.07 3.31 3.27 2.95
0.16 0.32 0.27 0.11 0.18 0.19 0.17 0.14 0.23 0.27 0.24 0.89 0.50 2.08 1.49 0.87 0.77 0.75 1.12 1.75 0.88 1.86 1.04 2.69 3.58 3.52 3.28 2.30 2.60 2.63 1.96 1.41 2.06 2.02 2.31 2.26 2.24 1.83 2.23 2.03 2.82 3.62 4.54 5.05
0.26 0.17 0.20 0.17 0.15 0.18 0.19 0.22 0.56 0.71 1.05 1.62 1.35 1.39 0.88 1.51 1.92 1.53 2.33 2.33 2.36 2.53 2.56 3.23 2.80 2.72 1.64 2.70 2.24 1.89 1.76 1.87 2.78 1.43 2.63 3.07 2.87 4.00 3.52 3.59 4.12 4.59 3.86 3.29
SL_Ratio
5.1 5.2 5.4 5.4 5.4 5.1 5.0 4.6 5.6 6.1 5.9 6.6 6.4 6.6 6.4 6.6 6.9 6.9 7.0 7.0 7.3 7.0 7.1 6.6 6.8 6.4 5.3 5.5 nan nan nan nan nan nan nan nan nan nan nan nan nan nan nan nan
5.4 5.3 5.2 6.3 6.1 5.9 5.0 5.0 5.8 6.4 6.3 6.0 5.9 6.0 7.0 7.1 7.1 7.3 7.0 6.7 4.7 3.4 6.8 6.8 6.9 6.5 nan nan nan nan nan nan nan nan nan nan nan nan nan nan nan nan nan nan
6.7 5.2 5.0 7.3 7.1 7.1 6.2 5.4 5.7 6.3 6.0 5.7 6.9 6.8 7.1 6.8 6.8 7.3 5.8 5.2 3.6 3.6 3.8 4.3 3.9 3.6 4.2 4.3 3.8 4.0 nan nan nan nan nan nan nan nan 4.4 4.7 4.0 nan nan nan
4.9 6.0 8.3 6.7 5.2 5.5 6.9 6.2 5.8 5.6 5.6 4.9 6.5 6.5 6.3 6.0 6.4 5.6 5.0 5.1 3.8 3.0 3.0 3.5 2.9 2.7 2.7 3.5 4.2 3.9 3.7 4.3 nan 5.0 0.0 nan 4.7 4.4 4.6 4.4 4.4 4.9 5.0 5.1
5.9 6.4 7.0 6.2 6.1 6.5 5.8 7.4 5.8 5.7 5.6 5.4 5.8 5.2 6.1 5.3 4.8 4.7 4.4 4.8 5.4 4.2 3.2 2.6 3.3 3.3 3.0 3.4 3.4 3.4 3.9 3.5 4.2 3.0 3.9 4.3 4.2 4.9 5.0 4.6 4.7 4.8 5.2 5.2
5.5 7.2 5.9 7.2 6.3 5.8 6.3 7.2 5.4 5.7 6.2 6.0 5.5 6.3 6.7 5.4 4.4 4.3 4.1 2.5 nan nan nan 3.9 3.3 2.9 4.7 4.7 4.3 4.7 3.8 3.5 2.9 3.5 2.8 3.0 3.1 3.7 4.1 4.4 4.5 4.4 5.0 4.8
5.8 4.8 5.1 6.8 6.0 5.9 6.1 6.9 5.3 5.3 5.9 6.0 6.1 5.3 5.6 4.8 4.7 4.1 5.0 nan nan nan 10.0 7.7 nan 2.4 3.8 5.0 5.2 4.8 4.7 4.0 3.8 3.4 3.2 3.0 2.8 2.9 2.9 3.1 3.1 3.4 3.8 4.2
4.8 5.1 5.9 6.2 5.9 7.4 6.5 4.9 4.9 5.0 5.0 4.8 4.2 4.4 4.5 4.2 4.9 5.1 4.8 nan nan nan nan nan nan nan 5.1 5.5 5.0 4.3 4.5 5.0 5.2 5.3 5.0 4.6 4.1 3.9 3.5 3.5 3.4 3.7 4.0 3.8
7.1 6.8 5.3 6.0 6.1 5.1 5.0 5.1 4.7 4.0 nan 0.0 3.4 3.8 3.8 4.5 5.0 5.4 5.0 nan nan nan nan nan nan 10.0 7.1 6.7 5.0 nan 5.0 5.5 5.3 4.7 4.8 5.3 4.8 5.5 5.6 5.1 5.1 5.7 5.1 4.6
4.8 5.2 5.7 5.9 6.2 5.3 5.0 4.3 4.1 3.3 3.6 3.9 4.2 4.3 5.2 5.3 5.8 5.7 4.7 nan nan nan nan nan nan nan 6.9 6.1 nan nan nan nan 6.2 6.6 6.8 6.5 6.1 6.0 5.7 5.3 5.9 6.1 5.9 6.3
4.6 6.0 5.8 6.0 5.4 4.5 4.2 4.0 5.0 nan nan nan nan 4.5 5.0 nan nan nan nan nan nan nan nan 8.0 nan nan 6.7 5.0 nan nan nan 6.7 3.3 3.6 4.0 5.3 6.2 6.7 5.3 6.7 5.4 5.4 6.0 6.1
5.5 3.5 4.7 5.0 4.9 4.2 4.6 4.7 4.5 10.0 4.3 nan nan nan nan 0.0 nan nan nan nan nan nan nan 10.0 nan 6.4 7.0 5.0 nan nan 5.0 4.6 4.3 4.2 4.1 4.7 5.1 6.3 nan nan nan nan nan 4.9
4.4 3.7 4.2 4.5 4.4 4.2 4.7 4.0 0.0 nan nan 0.0 nan nan nan nan nan nan nan nan nan 6.7 8.0 4.6 5.0 5.7 5.4 4.9 4.8 5.0 5.2 5.1 4.2 4.1 4.4 4.7 4.8 4.6 5.7 5.8 nan nan nan nan
3.8 5.0 5.4 4.7 4.9 nan nan nan nan nan nan nan nan 3.3 3.9 4.7 4.4 5.3 6.8 6.6 5.5 5.4 5.8 5.5 5.7 7.1 6.3 5.3 4.7 5.3 5.2 3.0 4.7 5.1 5.3 5.4 5.0 5.2 5.2 5.5 5.9 6.1 nan nan
nan nan nan nan nan nan nan nan nan nan nan nan nan 5.0 5.2 6.3 6.5 7.0 6.2 5.8 5.4 6.6 7.6 7.7 7.7 8.0 6.4 5.9 6.3 5.9 5.0 5.2 5.3 5.1 5.2 5.4 5.6 6.0 6.3 6.5 6.9 7.3 7.1 5.2
nan nan nan nan nan 3.3 nan nan 4.1 5.5 4.9 5.3 5.9 7.0 6.5 6.4 7.2 7.8 7.7 7.9 7.2 9.2 9.5 6.2 7.9 8.4 6.9 6.0 5.6 5.4 5.5 3.5 4.8 5.7 6.1 6.0 6.2 6.2 6.3 6.5 6.8 7.4 7.6 8.1
3.8 5.2 5.0 4.7 4.5 4.7 4.9 4.9 5.3 5.9 7.5 9.2 9.2 8.6 8.6 9.5 9.3 9.2 9.4 9.2 7.8 7.7 8.1 8.3 8.5 7.8 7.6 7.5 6.7 6.2 6.4 5.8 3.0 5.9 6.3 6.4 6.4 6.5 6.7 6.9 7.4 7.8 7.6 6.8
4.3 4.4 4.7 4.8 5.2 5.3 5.7 5.5 5.7 6.1 8.8 8.4 8.2 6.3 6.5 6.7 9.6 9.6 9.3 8.9 8.1 8.3 9.2 8.8 8.4 8.1 8.1 8.1 8.5 6.2 6.0 5.7 5.3 5.6 5.9 6.0 6.0 5.8 6.0 6.1 6.3 6.6 7.0 6.6
nan 5.0 5.0 5.0 5.0 5.3 5.8 6.6 7.4 7.5 6.6 7.1 6.5 7.3 7.5 7.6 9.3 9.7 9.4 7.7 7.6 9.9 10.1 9.5 3.0 5.9 8.3 8.4 4.4 5.5 5.2 4.7 5.2 5.9 5.7 3.2 5.7 5.9 6.8 6.5 6.6 6.5 6.9 7.1
5.3 4.9 5.4 5.8 5.3 5.4 7.9 7.8 7.1 8.3 8.5 8.1 7.1 7.1 8.7 8.0 7.8 7.5 8.2 9.3 10.4 9.0 9.4 9.4 8.0 8.0 8.5 5.8 3.4 5.7 4.9 4.6 4.8 5.0 5.3 5.7 6.4 6.4 6.5 3.2 6.5 6.3 6.0 6.3
6.7 6.7 7.0 7.0 7.7 7.2 6.8 6.6 7.1 8.4 8.8 7.5 6.9 7.1 7.5 8.2 7.4 6.8 7.5 7.7 10.6 9.7 9.2 3.4 7.8 6.9 6.1 5.5 4.3 4.6 4.7 4.7 4.8 5.3 5.5 5.6 5.7 6.2 6.2 5.8 5.9 5.8 6.0 6.1
7.6 7.5 7.2 7.5 7.8 8.4 8.2 8.3 8.5 7.5 7.9 7.3 7.0 7.0 6.6 8.5 7.2 7.1 6.5 7.9 7.6 3.0 5.8 6.0 6.7 3.1 3.4 3.1 4.6 4.6 4.7 4.5 4.9 5.1 5.2 5.2 5.6 6.1 6.2 6.2 6.3 6.1 6.0 5.9
8.2 8.3 8.3 8.1 8.0 9.6 9.2 8.8 7.0 6.7 6.8 6.9 6.6 6.8 6.5 6.7 6.1 6.2 6.6 9.1 5.7 3.4 5.2 4.9 3.1 3.0 3.0 4.3 4.4 4.6 4.7 4.9 5.0 5.2 5.3 5.3 5.8 6.1 6.8 6.7 6.5 6.6 6.1 6.4
8.6 8.7 8.9 8.8 8.7 8.8 9.3 9.7 8.7 8.4 6.4 6.3 5.8 5.8 5.6 5.1 4.6 5.4 5.3 3.0 3.0 3.8 4.2 4.1 3.7 3.0 3.0 4.5 5.0 5.1 5.1 5.3 5.6 5.7 5.9 3.2 5.7 6.9 7.6 7.4 8.1 6.9 7.1 6.9
8.6 8.5 8.5 7.8 7.8 6.7 7.3 6.6 6.1 5.9 6.2 5.8 6.2 6.0 5.6 4.3 5.1 5.3 4.6 4.5 3.2 3.9 4.5 3.2 3.0 3.0 4.7 4.9 5.4 5.6 5.8 6.1 6.5 6.4 6.8 6.1 6.1 6.2 6.8 7.7 7.7 7.3 7.6 7.4
8.0 6.9 6.9 7.3 6.5 6.1 5.6 5.1 5.6 5.4 4.7 5.2 5.2 5.0 4.8 4.8 4.9 5.1 5.0 3.7 5.0 3.2 4.9 4.7 4.9 4.9 5.1 5.8 5.8 5.9 6.4 6.5 6.9 7.6 7.4 7.2 7.0 7.6 8.0 8.0 7.7 7.2 7.0 6.8
6.6 4.2 5.9 6.0 5.9 5.6 5.4 5.6 6.0 6.4 4.6 5.4 5.7 5.3 5.4 5.6 5.2 4.4 3.5 5.1 5.2 5.0 5.0 5.0 5.2 4.0 5.8 5.6 6.0 6.4 6.9 6.9 3.9 7.8 7.7 7.6 7.7 7.3 7.5 7.3 7.1 6.8 7.3 7.8